Simultaneous Nadir Overpasses (SNOs) Predictions

Prediction of SNOs between GOES-17 and TERRA Satellite Orbit:

Table of predicted SNOs for the next 14.0 days since TLE Epoch: 2/26/2021
Index Date Time (GOES-17) GOES-17 Lat,Lon TERRA Lat,Lon Distance(km) Time Diff (sec)
1 02/28/2021 07:21:06 -0.04,-137.21 0.81,-133.38 436.29 80
2 02/28/2021 19:42:21 0.04,-137.22 0.31,-138.53 149.02 80
3 03/02/2021 19:32:48 0.04,-137.22 -0.29,-135.57 187.26 80
4 03/03/2021 07:54:12 -0.04,-137.22 -0.81,-140.76 404.05 80
5 03/05/2021 07:42:00 -0.03,-137.21 -0.16,-137.81 68.90 80
6 03/07/2021 07:27:07 -0.03,-137.19 0.45,-134.85 265.44 80
7 03/07/2021 19:48:22 0.03,-137.19 0.60,-140.02 320.81 80
8 03/09/2021 19:38:49 0.02,-137.17 -0.00,-137.06 12.92 80
9 03/11/2021 19:26:37 0.02,-137.15 -0.61,-134.10 346.56 80
10 03/12/2021 07:48:00 -0.01,-137.14 -0.48,-139.29 245.12 80
